KJ4EBE Weather Reports


time (UTC)temp
F
wind
direction
speed
knots
gust
knots
rain 1hr
in
rain 24hr
in
rain mn
in
humidity
%
barometer
mb
20260506222620 60 62 0.9 2.6 0.00 0.04 0.04 87 1012.5
20260506222116 60 16 1.7 2.6 0.00 0.04 0.04 87 1012.4
20260506221614 59 55 1.7 3.5 0.00 0.04 0.04 88 1012.4
20260506221111 59 49 2.6 2.6 0.00 0.04 0.04 87 1012.7
20260506220608 59 59 1.7 3.5 0.00 0.04 0.04 88 1012.7
20260506215600 59 56 2.6 3.5 0.00 0.04 0.04 88 1012.6
20260506215055 59 329 0.0 3.5 0.00 0.04 0.04 88 1012.7
20260506214552 59 47 1.7 3.5 0.00 0.04 0.04 88 1012.5
20260506214050 58 0 3.5 4.3 0.00 0.04 0.04 88 1012.7
20260506213548 58 47 2.6 3.5 0.00 0.04 0.04 88 1012.9
20260506213045 59 53 2.6 3.5 0.00 0.04 0.04 88 1013.0
20260506212541 59 60 4.3 4.3 0.00 0.04 0.04 88 1012.8
20260506212036 58 35 0.0 4.3 0.00 0.04 0.04 88 1012.9
20260506211532 59 57 1.7 3.5 0.00 0.04 0.04 88 1012.8
20260506211030 59 47 2.6 3.5 0.00 0.04 0.04 88 1012.8
20260506210526 59 35 1.7 2.6 0.00 0.04 0.04 88 1013.1
20260506210023 59 121 0.9 2.6 0.00 0.04 0.04 89 1012.7
20260506205520 58 42 1.7 5.2 0.00 0.04 0.04 88 1013.1
20260506205015 58 96 1.7 2.6 0.00 0.04 0.04 89 1013.3
20260506204514 58 61 1.7 3.5 0.00 0.04 0.04 88 1013.2
20260506204010 59 60 2.6 4.3 0.00 0.04 0.04 89 1012.7
20260506203508 58 60 1.7 5.2 0.00 0.04 0.04 89 1013.1
20260506203004 58 345 1.7 4.3 0.00 0.04 0.04 89 1013.0
20260506202502 58 80 2.6 3.5 0.00 0.04 0.04 89 1013.4
20260506201952 58 37 2.6 5.2 0.00 0.04 0.04 90 1013.3
20260506201450 58 63 0.9 5.2 0.00 0.04 0.04 90 1013.1
20260506200946 57 69 3.5 5.2 0.00 0.04 0.04 90 1013.4
20260506200442 58 47 3.5 5.2 0.00 0.04 0.04 90 1013.3
20260506195939 57 58 2.6 4.3 0.00 0.04 0.04 90 1013.3
20260506195436 58 73 4.3 5.2 0.00 0.04 0.04 90 1013.4
20260506194932 58 76 2.6 3.5 0.00 0.04 0.04 90 1013.3
20260506194430 57 64 2.6 5.2 0.00 0.04 0.04 90 1013.2
20260506193927 57 74 3.5 5.2 0.00 0.04 0.04 90 1013.3
20260506193424 57 38 0.9 3.5 0.00 0.04 0.04 90 1013.3
20260506192920 57 85 2.6 2.6 0.00 0.04 0.04 90 1013.1
20260506192417 57 62 3.5 5.2 0.00 0.04 0.04 90 1013.5
20260506191914 57 74 5.2 5.2 0.00 0.04 0.04 90 1013.4
20260506191410 57 87 4.3 5.2 0.00 0.04 0.04 90 1013.1
20260506190908 57 77 2.6 4.3 0.00 0.04 0.04 91 1013.4
20260506190404 57 49 1.7 3.5 0.00 0.04 0.04 91 1013.6
20260506185901 57 61 1.7 2.6 0.00 0.04 0.04 91 1013.8
20260506185358 56 47 2.6 3.5 0.00 0.04 0.04 91 1013.5
20260506184855 56 346 1.7 4.3 0.00 0.04 0.04 91 1013.3
20260506184352 56 73 3.5 7.8 0.00 0.04 0.04 91 1013.5
20260506183849 57 10 1.7 3.5 0.00 0.04 0.04 91 1013.4
20260506183344 56 46 1.7 5.2 0.00 0.04 0.04 91 1013.5
20260506182842 56 36 2.6 5.2 0.00 0.04 0.04 91 1013.1
20260506182339 57 59 3.5 5.2 0.00 0.04 0.04 91 1013.3
20260506181836 57 24 1.7 5.2 0.00 0.04 0.04 91 1013.3
20260506181334 57 54 1.7 4.3 0.00 0.04 0.04 91 1013.3
20260506180831 57 51 1.7 3.5 0.00 0.04 0.04 91 1013.5
20260506180327 57 63 3.5 4.3 0.00 0.04 0.04 92 1013.3
20260506175823 57 77 3.5 5.2 0.00 0.04 0.04 91 1013.4
20260506175320 57 92 4.3 5.2 0.00 0.04 0.04 91 1013.3
20260506174818 58 83 6.1 7.0 0.00 0.04 0.04 90 1013.0
20260506174315 58 57 1.7 3.5 0.00 0.04 0.04 91 1012.9
20260506173812 58 92 4.3 5.2 0.00 0.04 0.04 90 1012.9
20260506173309 59 55 2.6 3.5 0.00 0.04 0.04 90 1013.3
20260506172806 59 102 2.6 5.2 0.00 0.04 0.04 90 1013.1
20260506172306 59 87 1.7 5.2 0.00 0.04 0.04 90 1013.0
20260506171800 60 58 1.7 3.5 0.00 0.04 0.04 90 1013.0
20260506171257 60 49 1.7 3.5 0.00 0.04 0.04 90 1013.2
20260506170755 61 62 0.9 2.6 0.00 0.04 0.04 89 1012.6
20260506170251 60 61 0.9 2.6 0.00 0.04 0.04 90 1012.7
20260506165749 60 26 1.7 7.0 0.00 0.04 0.04 88 1012.7
20260506165247 62 92 1.7 4.3 0.00 0.04 0.04 88 1012.4
20260506164743 62 84 2.6 3.5 0.00 0.04 0.04 89 1012.3
20260506164240 63 59 0.9 3.5 0.00 0.04 0.04 91 1011.8
20260506163737 62 60 1.7 3.5 0.00 0.04 0.04 91 1011.8
20260506163232 60 296 0.9 3.5 0.00 0.04 0.04 93 1011.8
20260506162728 60 61 2.6 2.6 0.00 0.04 0.04 94 1011.7
20260506162226 59 306 0.9 4.3 0.00 0.04 0.04 95 1011.4
20260506161723 57 24 1.7 4.3 0.00 0.04 0.04 95 1011.3
20260506161220 57 33 0.0 3.5 0.02 0.04 0.04 96 1011.6
20260506160718 57 38 1.7 2.6 0.02 0.04 0.04 96 1011.9
20260506160214 56 23 0.9 3.5 0.00 0.03 0.03 96 1011.5
20260506155713 55 73 1.7 3.5 0.02 0.03 0.03 96 1012.0
20260506155210 55 31 3.5 3.5 0.02 0.02 0.02 95 1013.8
20260506153311 55 77 2.6 3.5 0.05 0.02 0.02 95 1013.3
20260506152808 55 324 1.7 5.2 0.05 0.02 0.02 94 1013.6
20260506152306 55 51 2.6 7.0 0.02 0.01 0.01 94 1012.3
20260506151804 56 82 6.1 9.6 0.00 0.01 0.01 92 1013.4
20260506151300 56 57 4.3 5.2 0.00 0.01 0.01 92 1014.0
20260506150757 56 74 1.7 5.2 0.00 0.01 0.01 93 1014.0
20260506150302 56 29 2.6 5.2 0.00 0.01 0.01 93 1013.8
20260506145751 57 15 3.5 6.1 0.00 0.01 0.01 93 1013.5
20260506145248 57 64 2.6 6.1 0.00 0.01 0.01 93 1013.1
20260506144745 57 73 1.7 7.8 0.00 0.01 0.01 93 1013.0
20260506144242 58 58 2.6 7.8 0.00 0.01 0.01 94 1013.1
20260506143740 59 359 2.6 5.2 0.00 0.01 0.01 93 1012.4
20260506143237 59 88 4.3 4.3 0.00 0.01 0.01 93 1012.7
20260506142735 60 49 3.5 5.2 0.00 0.01 0.01 93 1012.6
20260506142233 60 68 2.6 5.2 0.00 0.01 0.01 93 1012.9
20260506141731 60 34 1.7 5.2 0.00 0.01 0.01 93 1012.6
20260506141229 60 46 1.7 5.2 0.00 0.01 0.01 93 1012.1
20260506140726 60 63 3.5 4.3 0.00 0.01 0.01 93 1012.3
20260506140223 60 42 2.6 4.3 0.00 0.01 0.01 93 1012.4
20260506135719 61 44 2.6 5.2 0.00 0.01 0.01 92 1012.4
20260506135216 61 54 1.7 4.3 0.00 0.01 0.01 92 1012.1
20260506134713 62 74 1.7 3.5 0.00 0.01 0.01 92 1011.4
20260506134209 62 76 1.7 4.3 0.00 0.01 0.01 91 1011.3
20260506133706 62 70 2.6 3.5 0.00 0.01 0.01 91 1011.0
20260506133203 62 57 2.6 4.3 0.00 0.01 0.01 90 1011.0
20260506132700 62 65 0.9 4.3 0.00 0.01 0.01 90 1010.9
20260506132157 62 65 1.7 3.5 0.00 0.01 0.01 90 1011.1
20260506131655 62 42 2.6 3.5 0.00 0.01 0.01 89 1011.4
20260506131150 62 57 2.6 4.3 0.00 0.01 0.01 88 1011.3
20260506130647 63 45 0.9 1.7 0.00 0.01 0.01 88 1010.9
20260506130145 63 38 1.7 3.5 0.00 0.01 0.01 88 1010.8
20260506125643 63 53 1.7 3.5 0.00 0.01 0.01 88 1010.5
20260506125141 63 63 1.7 3.5 0.00 0.01 0.01 88 1010.5
20260506124638 63 62 4.3 4.3 0.00 0.01 0.01 88 1010.2
20260506124136 63 61 0.9 3.5 0.00 0.01 0.01 88 1010.1
20260506123633 63 64 1.7 2.6 0.00 0.01 0.01 88 1010.5
20260506123132 63 25 1.7 4.3 0.00 0.01 0.01 88 1010.3
20260506122628 63 357 3.5 5.2 0.00 0.01 0.01 88 1010.2
20260506122126 64 48 2.6 3.5 0.00 0.01 0.01 88 1010.3
20260506121623 64 53 2.6 3.5 0.00 0.01 0.01 88 1010.0
20260506121120 64 62 1.7 3.5 0.00 0.01 0.01 88 1010.1
20260506120618 64 91 3.5 4.3 0.00 0.01 0.01 88 1009.9
20260506120115 65 77 1.7 1.7 0.00 0.01 0.01 90 1009.8
20260506115613 65 86 1.7 1.7 0.00 0.01 0.01 90 1009.8
20260506115111 65 67 0.0 1.7 0.00 0.01 0.01 90 1009.7
20260506114608 65 23 1.7 2.6 0.00 0.01 0.01 90 1009.7
20260506114106 65 25 1.7 2.6 0.00 0.01 0.01 90 1009.7
20260506113604 65 66 1.7 1.7 0.00 0.01 0.01 91 1009.7
20260506113101 66 33 0.9 1.7 0.00 0.01 0.01 91 1009.6
20260506112557 66 33 0.9 1.7 0.00 0.01 0.01 91 1009.6
20260506112055 66 31 1.7 2.6 0.00 0.01 0.01 92 1009.7
20260506111553 66 12 0.9 1.7 0.00 0.01 0.01 92 1009.7
20260506111050 65 74 1.7 2.6 0.00 0.01 0.01 92 1009.7
20260506110547 65 54 1.7 3.5 0.02 0.01 0.01 92 1009.7
20260506110044 66 42 2.6 2.6 0.02 0.01 0.01 92 1009.6
20260506105540 66 311 0.9 1.7 0.00 0.00 0.00 93 1009.7
20260506105038 67 22 0.9 2.6 0.00 0.00 0.00 94 1009.4
20260506104536 67 60 0.0 2.6 0.00 0.00 0.00 94 1009.3
20260506104033 67 72 1.7 3.5 0.00 0.00 0.00 93 1009.1
20260506103530 68 63 1.7 3.5 0.00 0.00 0.00 94 1009.2
20260506103027 69 56 1.7 2.6 0.00 0.00 0.00 95 1009.0
20260506102526 69 67 1.7 3.5 0.00 0.00 0.00 96 1009.0
20260506102023 71 79 1.7 2.6 0.00 0.00 0.00 97 1009.1
20260506101519 73 52 0.0 1.7 0.00 0.00 0.00 98 1008.9
20260506101016 73 49 1.7 1.7 0.00 0.00 0.00 97 1008.8
20260506100514 73 115 0.0 1.7 0.00 0.00 0.00 97 1009.0
20260506100013 73 108 0.0 1.7 0.02 0.00 0.00 97 1008.7
20260506095511 74 41 0.0 1.7 0.00 0.00 0.00 97 1008.6
20260506095006 74 337 0.0 0.9 0.00 0.00 0.00 96 1008.4
20260506094505 74 330 0.9 0.9 0.00 0.00 0.00 96 1008.5
20260506094002 74 27 0.0 0.9 0.00 0.00 0.00 95 1008.6
20260506093500 74 40 0.0 0.9 0.00 0.00 0.00 94 1008.5
20260506092958 74 39 0.0 1.7 0.00 0.00 0.00 94 1008.5
20260506092455 74 58 0.9 1.7 0.00 0.00 0.00 94 1008.5
20260506091951 74 193 0.0 1.7 0.00 0.00 0.00 94 1008.6
20260506091450 74 48 0.0 0.9 0.00 0.00 0.00 94 1008.5
20260506090947 74 229 0.0 1.7 0.00 0.00 0.00 94 1008.3
20260506090445 74 68 0.9 1.7 0.00 0.00 0.00 94 1008.2
20260506085941 74 92 0.0 3.5 0.00 0.00 0.00 94 1008.3
20260506085438 74 75 1.7 1.7 0.00 0.00 0.00 94 1008.2
20260506084934 74 120 0.9 1.7 0.00 0.00 0.00 94 1008.2
20260506084431 75 216 0.0 1.7 0.00 0.00 0.00 94 1008.1
20260506083927 75 277 0.9 1.7 0.00 0.00 0.00 94 1008.2
20260506083425 75 200 0.9 1.7 0.00 0.00 0.00 93 1008.1
20260506082922 75 33 0.0 0.9 0.00 0.00 0.00 93 1008.1
20260506082419 75 217 1.7 2.6 0.00 0.00 0.00 93 1008.2
20260506081914 75 313 0.9 1.7 0.00 0.00 0.00 93 1007.7
20260506081413 75 49 0.9 1.7 0.00 0.00 0.00 93 1008.1
20260506080910 75 269 0.0 1.7 0.00 0.00 0.00 93 1008.2
20260506080407 75 119 0.0 1.7 0.00 0.00 0.00 93 1008.1
20260506073351 75 315 0.0 2.6 0.00 0.00 0.00 93 1008.4
20260506072847 75 224 0.0 2.6 0.00 0.00 0.00 93 1008.5
20260506072345 75 274 0.0 2.6 0.00 0.00 0.00 93 1008.5
20260506071843 75 31 0.0 2.6 0.00 0.00 0.00 93 1008.8
20260506071341 75 230 1.7 2.6 0.00 0.00 0.00 93 1008.6
20260506070837 75 326 0.0 3.5 0.00 0.00 0.00 93 1008.5
20260506070334 75 209 1.7 2.6 0.00 0.00 0.00 93 1008.3
20260506062312 75 282 0.0 2.6 0.00 0.00 0.00 93 1008.6
20260506061807 75 218 0.0 0.9 0.00 0.00 0.00 94 1008.5
20260506061304 75 62 0.0 0.9 0.00 0.00 0.00 94 1008.4
20260506060803 75 53 0.0 2.6 0.00 0.00 0.00 94 1008.4
20260506060300 75 289 0.0 2.6 0.00 0.00 0.00 94 1008.2
20260506051232 74 155 1.7 3.5 0.00 0.00 0.00 94 1007.2
20260506050730 74 180 0.9 3.5 0.00 0.00 0.00 93 1007.4
20260506050227 74 202 0.0 2.6 0.00 0.00 0.00 93 1007.4
20260506044718 75 37 0.0 1.7 0.00 0.00 0.00 92 1007.5
20260506044215 75 206 0.9 2.6 0.00 0.00 0.00 92 1007.5
20260506043712 75 344 1.7 6.1 0.00 0.00 0.00 91 1007.4
20260506043210 75 216 1.7 2.6 0.00 0.00 0.00 91 1007.3
20260506042709 75 245 0.0 2.6 0.00 0.00 0.00 91 1007.2
20260506042206 75 162 0.0 1.7 0.00 0.00 0.00 91 1007.2
20260506041705 75 44 0.0 2.6 0.00 0.00 0.00 91 1007.2
20260506041201 75 75 0.0 1.7 0.00 0.00 0.00 90 1007.4
20260506040658 75 11 0.0 1.7 0.00 0.00 0.00 90 1007.4
20260506040155 75 50 0.0 2.6 0.00 0.00 0.00 90 1007.2
20260506035652 75 249 0.0 3.5 0.00 0.00 0.00 90 1007.2
20260506035149 75 164 0.0 2.6 0.00 0.00 0.00 89 1007.5
20260506034646 75 140 0.0 2.6 0.00 0.00 0.00 89 1007.4
20260506034143 75 104 0.0 2.6 0.00 0.00 0.00 89 1007.0
20260506033640 75 245 0.0 2.6 0.00 0.00 0.00 89 1007.1
20260506033137 76 71 0.0 2.6 0.00 0.00 0.00 88 1007.0
20260506032634 76 238 0.0 3.5 0.00 0.00 0.00 88 1007.1
20260506032131 76 210 2.6 2.6 0.00 0.00 0.00 88 1007.1
20260506031628 76 61 0.0 3.5 0.00 0.00 0.00 87 1006.9
20260506031125 76 217 2.6 4.3 0.00 0.00 0.00 87 1006.9
20260506030624 76 322 0.0 2.6 0.00 0.00 0.00 86 1006.9
20260506030120 76 296 0.0 3.5 0.00 0.00 0.00 86 1007.1
20260506025617 76 217 0.0 3.5 0.00 0.00 0.00 86 1006.7
20260506025113 76 105 0.9 4.3 0.00 0.00 0.00 86 1006.6
20260506024611 77 208 0.9 3.5 0.00 0.00 0.00 85 1006.5
20260506024107 77 226 0.0 1.7 0.00 0.00 0.00 85 1006.4
20260506023603 77 230 0.0 1.7 0.00 0.00 0.00 85 1006.2
20260506023101 77 319 0.9 1.7 0.00 0.00 0.00 84 1006.1
20260506022558 77 164 0.0 2.6 0.00 0.00 0.00 84 1006.2
20260506022055 77 244 0.0 1.7 0.00 0.00 0.00 84 1006.3
20260506021553 77 64 0.9 2.6 0.00 0.00 0.00 84 1006.3
20260506021050 77 337 0.0 3.5 0.00 0.00 0.00 83 1006.2
20260506020547 78 142 0.9 2.6 0.00 0.00 0.00 83 1006.1
20260506020044 78 230 0.0 0.9 0.00 0.00 0.00 83 1006.1
20260506015542 78 150 0.0 2.6 0.00 0.00 0.00 82 1006.1
20260506015039 78 77 0.9 2.6 0.00 0.00 0.00 82 1005.7
20260506014536 78 208 0.0 2.6 0.00 0.00 0.00 82 1005.8
20260506014032 79 22 0.0 1.7 0.00 0.00 0.00 81 1005.7
20260506013531 79 118 0.9 4.3 0.00 0.00 0.00 81 1005.8
20260506013026 79 60 1.7 3.5 0.00 0.00 0.00 81 1005.6
20260506012522 79 49 0.9 4.3 0.00 0.00 0.00 80 1005.4
20260506012020 79 185 1.7 2.6 0.00 0.00 0.00 80 1005.5
20260506011517 80 164 0.0 4.3 0.00 0.00 0.00 79 1005.5
20260506011014 80 135 1.7 1.7 0.00 0.00 0.00 79 1005.3
20260506010513 80 39 1.7 2.6 0.00 0.00 0.00 78 1005.3
20260506010009 80 288 0.0 1.7 0.00 0.00 0.00 78 1005.5
20260506005507 81 251 0.9 2.6 0.00 0.00 0.00 77 1005.3
20260506005002 81 191 1.7 3.5 0.00 0.00 0.00 76 1005.3
20260506004500 81 193 5.2 7.8 0.00 0.00 0.00 76 1005.3
20260506003955 82 213 1.7 4.3 0.00 0.00 0.00 75 1005.0
20260506003452 82 216 5.2 6.1 0.00 0.00 0.00 74 1005.2
20260506002948 82 78 0.9 4.3 0.00 0.00 0.00 74 1005.1
20260506002445 83 139 1.7 5.2 0.00 0.00 0.00 73 1005.3
20260506001940 83 75 0.0 2.6 0.00 0.00 0.00 73 1005.3
20260506001437 84 154 1.7 3.5 0.00 0.00 0.00 72 1005.3
20260506000935 85 249 0.9 3.5 0.00 0.00 0.00 71 1005.3
20260506000432 85 193 0.0 3.5 0.00 0.00 0.00 71 1005.2
20260505235929 85 117 0.9 1.7 0.00 0.00 0.00 71 1005.2
20260505235427 85 48 0.0 1.7 0.00 0.00 0.00 70 1005.4
20260505234923 85 79 0.9 3.5 0.00 0.00 0.00 70 1005.3
20260505234421 86 169 1.7 4.3 0.00 0.00 0.00 70 1005.2
20260505233917 86 254 1.7 3.5 0.00 0.00 0.00 67 1005.3
20260505233416 86 39 0.0 2.6 0.00 0.00 0.00 64 1005.2
20260505232913 86 169 1.7 1.7 0.00 0.00 0.00 63 1005.1
20260505232411 86 243 0.0 1.7 0.00 0.00 0.00 64 1005.1
20260505231907 87 244 1.7 4.3 0.00 0.00 0.00 63 1005.2
20260505231405 87 193 3.5 4.3 0.00 0.00 0.00 62 1005.2
20260505230903 88 245 0.9 2.6 0.00 0.00 0.00 62 1005.1
20260505230400 87 231 0.0 4.3 0.00 0.00 0.00 64 1005.1
20260505225856 87 314 0.0 0.9 0.00 0.00 0.00 62 1004.9
20260505225354 87 215 0.0 4.3 0.00 0.00 0.00 64 1005.0
20260505224848 87 136 5.2 6.1 0.00 0.00 0.00 64 1005.0
20260505224347 88 209 0.9 7.8 0.00 0.00 0.00 62 1005.0
20260505223843 89 252 4.3 5.2 0.00 0.00 0.00 62 1005.0
20260505223340 88 78 4.3 5.2 0.00 0.00 0.00 63 1005.0
20260505222836 88 136 0.9 6.1 0.00 0.00 0.00 62 1005.2